Flight Track Log - Related Links

Times and Time Zones

All times are in EDT time to prevent confusion due to time zone crossing. See the N911DA flight status page for this flight to view local times or setup timezone preferences in your user account.


Time Position Orientation Groundspeed Altitude Reporting Facility
EDT Latitude Longitude Course Direction KTS MPH feet Rate Location/Type
Fri 11:23:04 AM 38.8833 -77.0500 303° West 167 192 1,600  Level Potomac TRACON
Fri 11:24:04 AM 38.9167 -77.1167 330° Northwest 234 269 3,400 2,250 Climbing Potomac TRACON
Fri 11:25:04 AM 38.9833 -77.1667 297° West 262 302 6,100 2,850 Climbing Potomac TRACON
Fri 11:26:04 AM 39.0167 -77.2500 270° West 270 311 9,100 2,231 Climbing Potomac TRACON
Fri 11:27:05 AM 39.0167 -77.3333 187° South 311 358 10,600 1,983 Climbing Potomac TRACON
Fri 11:28:05 AM 38.9167 -77.3500 186° South 341 392 13,100 1,933 Climbing Potomac TRACON
Fri 11:28:35 AM 38.8692 -77.3567 223° Southwest 363 418 13,500 700 Climbing Washington Center
Fri 11:29:05 AM 38.8333 -77.4000 217° Southwest 381 438 13,800 793 Climbing Potomac TRACON
Fri 11:30:36 AM 38.6956 -77.5308 220° Southwest 401 461 15,100 1,248 Climbing Washington Center
Fri 11:31:34 AM 38.6128 -77.6189 220° Southwest 401 461 16,900 1,563 Climbing Washington Center
Fri 11:32:35 AM 38.5236 -77.7147 232° Southwest 407 468 18,200 1,328 Climbing Washington Center
Fri 11:33:36 AM 38.4525 -77.8319 237° Southwest 412 474 19,600 1,339 Climbing Washington Center
Fri 11:34:36 AM 38.3897 -77.9572 236° Southwest 422 486 20,900 1,169 Climbing Washington Center
Fri 11:35:34 AM 38.3203 -78.0875 237° Southwest 433 498 21,900 958 Climbing Washington Center
Fri 11:36:35 AM 38.2531 -78.2172 236° Southwest 443 510 22,800 893 Climbing Washington Center
Fri 11:37:35 AM 38.1811 -78.3522 239° Southwest 455 524 23,700 942 Climbing Washington Center
Fri 11:38:36 AM 38.1131 -78.4975 250° West 465 535 24,700 3,124 Climbing Washington Center
Fri 11:39:36 AM 38.0742 -78.6331 246° West 465 535 30,000 1,220 Climbing Washington Center
Fri 11:40:34 AM 38.0158 -78.7994 246° West 470 541 27,100 -908 Descending Washington Center
Fri 11:41:35 AM 37.9639 -78.9447 245° Southwest 470 541 28,200 992 Climbing Washington Center
Fri 11:42:35 AM 37.9094 -79.0950 229° Southwest 470 541 29,100 900 Climbing Washington Center
Fri 11:43:35 AM 37.8331 -79.2044 227° Southwest 464 534 30,000 454 Climbing Washington Center
Fri 11:44:34 AM 37.7461 -79.3236 227° Southwest 464 534 30,000  Level Washington Center
Fri 11:45:35 AM 37.6458 -79.4578 227° Southwest 487 560 30,000  Level Washington Center
Fri 11:46:36 AM 37.5672 -79.5639 227° Southwest 474 545 30,000  Level Washington Center
Fri 11:47:36 AM 37.4689 -79.6950 229° Southwest 469 540 30,000  Level Washington Center
Fri 11:48:34 AM 37.3922 -79.8058 227° Southwest 469 540 30,000  Level Washington Center
Fri 11:50:16 AM 37.2392 -80.0139 227° Southwest 462 532 30,000  Level Atlanta Center
Fri 11:51:16 AM 37.1594 -80.1219 227° Southwest 457 526 30,000  Level Atlanta Center
Fri 11:52:16 AM 37.0753 -80.2356 227° Southwest 457 526 30,000  Level Atlanta Center
Fri 11:53:16 AM 36.9872 -80.3542 227° Southwest 457 526 30,000  Level Atlanta Center
Fri 11:54:16 AM 36.9011 -80.4697 227° Southwest 457 526 30,000  Level Atlanta Center
Fri 11:55:16 AM 36.8067 -80.5958 226° Southwest 457 526 30,000  Level Atlanta Center
Fri 11:56:17 AM 36.7281 -80.6978 226° Southwest 452 520 30,000  Level Atlanta Center
Fri 11:57:16 AM 36.6294 -80.8258 228° Southwest 459 528 30,000  Level Atlanta Center
Fri 11:58:16 AM 36.5428 -80.9456 227° Southwest 464 534 30,000  Level Atlanta Center
Fri 11:59:16 AM 36.4519 -81.0653 227° Southwest 464 534 30,000  Level Atlanta Center
Fri 12:00:16 PM 36.3628 -81.1822 227° Southwest 464 534 30,000  Level Atlanta Center
Fri 12:01:16 PM 36.2739 -81.2986 227° Southwest 464 534 30,000  Level Atlanta Center
Fri 12:02:16 PM 36.1847 -81.4172 226° Southwest 464 534 30,000 -50 Level Atlanta Center
Fri 12:03:16 PM 36.0953 -81.5333 226° Southwest 464 534 29,900  Descending Atlanta Center
Fri 12:04:16 PM 36.0036 -81.6492 227° Southwest 464 534 30,000 50 Climbing Atlanta Center
Fri 12:05:16 PM 35.9142 -81.7672 227° Southwest 470 541 30,000  Level Atlanta Center
Fri 12:06:16 PM 35.8244 -81.8847 228° Southwest 475 547 30,000  Level Atlanta Center
Fri 12:07:16 PM 35.7389 -81.9997 225° Southwest 480 552 30,000  Level Atlanta Center
Fri 12:08:16 PM 35.6447 -82.1144 225° Southwest 470 541 30,000  Level Atlanta Center
Fri 12:09:16 PM 35.5506 -82.2317 223° Southwest 470 541 30,000 -150 Level Atlanta Center
Fri 12:10:16 PM 35.4561 -82.3381 223° Southwest 477 549 29,700 -550 Descending Atlanta Center
Fri 12:11:16 PM 35.3617 -82.4444 221° Southwest 469 540 28,900 -800 Descending Atlanta Center
Fri 12:12:16 PM 35.2792 -82.5325 223° Southwest 450 518 28,100 -950 Descending Atlanta Center
Fri 12:13:16 PM 35.1844 -82.6411 223° Southwest 438 504 27,000 -1,100 Descending Atlanta Center
Fri 12:14:16 PM 35.0981 -82.7389 222° Southwest 433 498 25,900 -1,000 Descending Atlanta Center
Fri 12:15:16 PM 35.0133 -82.8317 221° Southwest 428 493 25,000 -800 Descending Atlanta Center
Fri 12:16:16 PM 34.9267 -82.9242 222° Southwest 428 493 24,300 -800 Descending Atlanta Center
Fri 12:17:16 PM 34.8439 -83.0164 221° Southwest 411 473 23,400 -900 Descending Atlanta Center
Fri 12:18:16 PM 34.7550 -83.1108 223° Southwest 419 482 22,500 -700 Descending Atlanta Center
Fri 12:19:16 PM 34.6681 -83.2078 222° Southwest 419 482 22,000 -250 Descending Atlanta Center
Fri 12:20:16 PM 34.5769 -83.3072 222° Southwest 431 496 22,000 -550 Level Atlanta Center
Fri 12:21:16 PM 34.4875 -83.4061 221° Southwest 437 503 20,900 -1,650 Descending Atlanta Center
Fri 12:22:16 PM 34.4108 -83.4875 224° Southwest 432 497 18,700 -2,050 Descending Atlanta Center
Fri 12:23:16 PM 34.3297 -83.5811 221° Southwest 422 486 16,800 -1,650 Descending Atlanta Center
Fri 12:24:16 PM 34.2467 -83.6669 222° Southwest 408 470 15,400 -1,350 Descending Atlanta Center
Fri 12:25:16 PM 34.1633 -83.7575 223° Southwest 402 463 14,100 -700 Descending Atlanta Center
Fri 12:26:16 PM 34.0864 -83.8431 221° Southwest 392 451 14,000 -300 Descending Atlanta Center
Fri 12:26:56 PM 34.0167 -83.9167 226° Southwest 377 434 13,600 -900 Descending Atlanta TRACON
Fri 12:27:56 PM 33.9500 -84.0000 218° Southwest 373 429 12,500 -686 Descending Atlanta TRACON
Fri 12:29:16 PM 33.8444 -84.0989 215° Southwest 380 437 12,000 -248 Descending Atlanta Center
Fri 12:29:57 PM 33.7833 -84.1500 234° Southwest 367 422 12,000  Level Atlanta TRACON
Fri 12:30:57 PM 33.7333 -84.2333 270° West 357 411 12,000 -150 Level Atlanta TRACON
Fri 12:31:57 PM 33.7333 -84.3333 270° West 305 351 11,700 -1,091 Descending Atlanta TRACON
Fri 12:32:58 PM 33.7333 -84.4333 270° West 308 354 9,800 -1,884 Descending Atlanta TRACON
Fri 12:33:58 PM 33.7333 -84.5333 270° West 282 325 7,900 -1,850 Descending Atlanta TRACON
Fri 12:34:58 PM 33.7333 -84.6333 270° West 276 318 6,100 -1,450 Descending Atlanta TRACON
Fri 12:35:58 PM 33.7333 -84.7167 270° West 278 320 5,000 -545 Descending Atlanta TRACON
Fri 12:36:59 PM 33.7333 -84.8167 253° West 251 289 5,000  Level Atlanta TRACON
Fri 12:37:59 PM 33.7167 -84.8833 151° Southeast 230 265 5,000  Level Atlanta TRACON
Fri 12:38:59 PM 33.6667 -84.8500 107° East 227 261 5,000  Level Atlanta TRACON
Fri 12:39:54 PM 33.6500 -84.7833 90° East 230 265 5,000  Level Atlanta TRACON
Fri 12:41:00 PM 33.6500 -84.7000 90° East 230 265 5,000 -429 Level Atlanta TRACON
Fri 12:42:00 PM 33.6500 -84.6333 90° East 230 265 4,100 -1,105 Descending Atlanta TRACON
Fri 12:42:54 PM 33.6500 -84.5500 90° East 217 250 2,900 -1,148 Descending Atlanta TRACON
Fri 12:43:55 PM 33.6500 -84.5000 360° North 165 190 1,900 -984 Descending Atlanta TRACON

Login

Don't have an account? Register now (free) for customized features, flight alerts, and more!